INTELSAT 15 (IS-15)

Last updated on Wed Sep 17 2025 00:02:47 GMT+0000 (Coordinated Universal Time)

1 36106U 09067A 25259.60063208 -.00000205 00000+0 00000+0 0 9992 2 36106 0.0228 254.7002 0002370 295.9671 106.5040 1.00271776 38481
UTC large
Height (km)
Speed (km/s)
/
Latitude / Longitude
Inclination (degrees)
Orbital Period (minutes)
Azimuth
Elevation
Range (km)
Doppler Factor

Next 0 passes for location: London (51.5072 / 0.1276)

Sorry there are no passes over London.